Hourly Weather Bolshie Milcy

Today, 20 June, Sunday

Time Temperature Precipitation Wind Pressure Humidity
00:00 +19°C° 0 mm 2 mps 757 mmHg 81%
01:00 +19°C° 0 mm 2 mps 757 mmHg 84%
02:00 +18°C° 0 mm 2 mps 757 mmHg 86%
03:00 +18°C° 0 mm 2 mps 757 mmHg 87%
04:00 +19°C° 0 mm 2 mps 756 mmHg 87%
05:00 +19°C° 0 mm 2 mps 756 mmHg 87%
06:00 +21°C° 0 mm 2 mps 756 mmHg 79%
07:00 +24°C° 0 mm 3 mps 756 mmHg 71%
08:00 +26°C° 0 mm 3 mps 756 mmHg 63%
09:00 +27°C° 0 mm 3 mps 756 mmHg 57%
10:00 +29°C° 0 mm 4 mps 756 mmHg 52%
11:00 +30°C° 0 mm 4 mps 756 mmHg 47%
12:00 +32°C° 0 mm 4 mps 756 mmHg 44%
13:00 +32°C° 0 mm 4 mps 756 mmHg 42%
14:00 +33°C° 0 mm 3 mps 755 mmHg 39%
15:00 +33°C° 0 mm 3 mps 755 mmHg 41%
16:00 +33°C° 0 mm 3 mps 755 mmHg 43%
17:00 +33°C° 0 mm 3 mps 755 mmHg 45%
18:00 +30°C° 0 mm 3 mps 755 mmHg 54%
19:00 +28°C° 0 mm 2 mps 755 mmHg 62%
20:00 +26°C° 0 mm 2 mps 755 mmHg 71%
21:00 +26°C° 0 mm 2 mps 755 mmHg 73%
22:00 +25°C° 0 mm 2 mps 755 mmHg 74%
23:00 +24°C° 0 mm 2 mps 755 mmHg 76%

Tomorrow, 21 June, Monday

Time Temperature Precipitation Wind Pressure Humidity
00:00 +23°C° 0.2 mm 2 mps 755 mmHg 81%
01:00 +21°C° 0.2 mm 2 mps 755 mmHg 86%
02:00 +20°C° 0.2 mm 2 mps 755 mmHg 91%
03:00 +21°C° 0.1 mm 2 mps 755 mmHg 91%
04:00 +21°C° 0.1 mm 2 mps 755 mmHg 91%
05:00 +21°C° 0.1 mm 2 mps 755 mmHg 91%
06:00 +24°C° 0 mm 2 mps 755 mmHg 84%
07:00 +25°C° 0 mm 3 mps 755 mmHg 76%
08:00 +27°C° 0 mm 3 mps 755 mmHg 68%
09:00 +28°C° 0 mm 4 mps 755 mmHg 62%
10:00 +29°C° 0 mm 4 mps 755 mmHg 56%
11:00 +32°C° 0 mm 4 mps 755 mmHg 50%
12:00 +32°C° 0 mm 4 mps 755 mmHg 47%
13:00 +33°C° 0 mm 4 mps 755 mmHg 44%
14:00 +34°C° 0 mm 4 mps 754 mmHg 41%
15:00 +34°C° 0 mm 4 mps 754 mmHg 42%
16:00 +33°C° 0 mm 3 mps 754 mmHg 44%
17:00 +33°C° 0 mm 3 mps 754 mmHg 46%
18:00 +30°C° 0 mm 3 mps 754 mmHg 54%
19:00 +29°C° 0 mm 2 mps 754 mmHg 63%
20:00 +27°C° 0 mm 2 mps 754 mmHg 71%
21:00 +26°C° 0 mm 2 mps 754 mmHg 73%
22:00 +24°C° 0 mm 2 mps 754 mmHg 74%
23:00 +23°C° 0 mm 2 mps 754 mmHg 76%

Day after tomorrow, 22 June, Tuesday

Time Temperature Precipitation Wind Pressure Humidity
00:00 +21°C° 0 mm 2 mps 754 mmHg 78%
01:00 +20°C° 0 mm 2 mps 754 mmHg 81%
02:00 +19°C° 0 mm 2 mps 754 mmHg 83%
03:00 +20°C° 0 mm 2 mps 754 mmHg 83%
04:00 +20°C° 0 mm 2 mps 754 mmHg 83%
05:00 +20°C° 0 mm 3 mps 754 mmHg 84%
06:00 +22°C° 0 mm 3 mps 754 mmHg 78%
07:00 +25°C° 0 mm 3 mps 754 mmHg 73%
08:00 +27°C° 0 mm 4 mps 754 mmHg 67%
09:00 +28°C° 0 mm 4 mps 753 mmHg 62%
10:00 +29°C° 0 mm 5 mps 753 mmHg 57%
11:00 +30°C° 0 mm 5 mps 753 mmHg 52%
12:00 +32°C° 0 mm 5 mps 753 mmHg 49%
13:00 +33°C° 0 mm 5 mps 753 mmHg 47%
14:00 +33°C° 0 mm 5 mps 753 mmHg 45%
15:00 +33°C° 0 mm 5 mps 752 mmHg 47%
16:00 +33°C° 0 mm 4 mps 752 mmHg 48%
17:00 +33°C° 0 mm 4 mps 752 mmHg 50%
18:00 +30°C° 0 mm 3 mps 752 mmHg 58%
19:00 +29°C° 0 mm 2 mps 752 mmHg 67%
20:00 +27°C° 0 mm 2 mps 752 mmHg 75%
21:00 +26°C° 0.1 mm 2 mps 753 mmHg 79%
22:00 +25°C° 0.1 mm 2 mps 753 mmHg 83%
23:00 +23°C° 0.1 mm 2 mps 753 mmHg 87%

23 June, Wednesday

Time Temperature Precipitation Wind Pressure Humidity
00:00 +23°C° 0.1 mm 2 mps 753 mmHg 89%
01:00 +21°C° 0.1 mm 2 mps 753 mmHg 91%
02:00 +21°C° 0.1 mm 2 mps 753 mmHg 94%
03:00 +21°C° 0 mm 2 mps 754 mmHg 92%
04:00 +23°C° 0 mm 2 mps 754 mmHg 91%
05:00 +23°C° 0 mm 2 mps 754 mmHg 89%
06:00 +24°C° 0 mm 2 mps 754 mmHg 82%
07:00 +26°C° 0 mm 2 mps 754 mmHg 75%
08:00 +28°C° 0 mm 2 mps 754 mmHg 68%
09:00 +28°C° 1 mm 2 mps 754 mmHg 68%
10:00 +29°C° 1 mm 3 mps 754 mmHg 68%
11:00 +29°C° 1 mm 3 mps 754 mmHg 68%
12:00 +30°C° 0.2 mm 3 mps 754 mmHg 65%
13:00 +30°C° 0.2 mm 3 mps 754 mmHg 62%
14:00 +30°C° 0.2 mm 3 mps 754 mmHg 59%
15:00 +30°C° 0.1 mm 3 mps 754 mmHg 60%
16:00 +30°C° 0.1 mm 2 mps 754 mmHg 61%
17:00 +30°C° 0.1 mm 2 mps 754 mmHg 62%
18:00 +28°C° 0.2 mm 1 mps 754 mmHg 69%
19:00 +27°C° 0.2 mm 1 mps 754 mmHg 77%
20:00 +24°C° 0.2 mm 0 mps 754 mmHg 84%
21:00 +25°C° 0.4 mm 1 mps 755 mmHg 86%
22:00 +24°C° 0.4 mm 1 mps 755 mmHg 88%
23:00 +23°C° 0.4 mm 1 mps 755 mmHg 91%

24 June, Thursday

Time Temperature Precipitation Wind Pressure Humidity
00:00 +23°C° 0.2 mm 1 mps 755 mmHg 92%
01:00 +22°C° 0.2 mm 1 mps 755 mmHg 93%
02:00 +22°C° 0.2 mm 1 mps 755 mmHg 94%
03:00 +23°C° 0 mm 1 mps 755 mmHg 93%
04:00 +23°C° 0 mm 1 mps 755 mmHg 93%
05:00 +23°C° 0 mm 1 mps 755 mmHg 92%
06:00 +25°C° 0 mm 1 mps 755 mmHg 86%
07:00 +26°C° 0 mm 1 mps 755 mmHg 80%
08:00 +28°C° 0 mm 1 mps 755 mmHg 74%
09:00 +29°C° 0.4 mm 1 mps 755 mmHg 70%
10:00 +30°C° 0.4 mm 2 mps 755 mmHg 66%
11:00 +31°C° 0.4 mm 2 mps 755 mmHg 63%
12:00 +30°C° 0.4 mm 2 mps 755 mmHg 64%
13:00 +30°C° 0.4 mm 2 mps 755 mmHg 64%
14:00 +30°C° 0.4 mm 2 mps 755 mmHg 65%
15:00 +29°C° 0.7 mm 2 mps 755 mmHg 68%
16:00 +28°C° 0.7 mm 3 mps 755 mmHg 71%
17:00 +28°C° 0.7 mm 3 mps 755 mmHg 74%
18:00 +25°C° 2.2 mm 3 mps 755 mmHg 80%
19:00 +22°C° 2.2 mm 3 mps 755 mmHg 87%
20:00 +20°C° 2.2 mm 2 mps 755 mmHg 93%
21:00 +19°C° 0 mm 2 mps 755 mmHg 94%
22:00 +19°C° 0 mm 2 mps 755 mmHg 94%
23:00 +19°C° 0 mm 2 mps 755 mmHg 95%

25 June, Friday

Time Temperature Precipitation Wind Pressure Humidity
00:00 +19°C° 0 mm 2 mps 755 mmHg 96%
01:00 +19°C° 0 mm 2 mps 755 mmHg 96%
02:00 +18°C° 0 mm 2 mps 755 mmHg 96%
03:00 +19°C° 0 mm 2 mps 754 mmHg 95%
04:00 +19°C° 0 mm 2 mps 754 mmHg 94%
05:00 +21°C° 0 mm 1 mps 754 mmHg 93%
06:00 +22°C° 0 mm 1 mps 754 mmHg 88%
07:00 +24°C° 0 mm 2 mps 754 mmHg 82%
08:00 +26°C° 0 mm 2 mps 754 mmHg 76%
09:00 +27°C° 0 mm 2 mps 754 mmHg 71%
10:00 +29°C° 0 mm 2 mps 754 mmHg 65%
11:00 +31°C° 0 mm 2 mps 754 mmHg 59%
12:00 +31°C° 0.1 mm 2 mps 753 mmHg 57%
13:00 +33°C° 0.1 mm 3 mps 753 mmHg 56%
14:00 +33°C° 0.1 mm 3 mps 753 mmHg 54%
15:00 +33°C° 0.1 mm 3 mps 752 mmHg 55%
16:00 +33°C° 0.1 mm 3 mps 752 mmHg 56%
17:00 +33°C° 0.1 mm 3 mps 752 mmHg 57%
18:00 +29°C° 0.8 mm 2 mps 752 mmHg 67%
19:00 +27°C° 0.8 mm 2 mps 752 mmHg 77%
20:00 +24°C° 0.8 mm 2 mps 752 mmHg 88%
21:00 +24°C° 1.1 mm 2 mps 752 mmHg 90%
22:00 +23°C° 1.1 mm 2 mps 752 mmHg 93%
23:00 +21°C° 1.1 mm 2 mps 752 mmHg 95%
Show more